7 * 24
多渠道服务支持
STARLINK-37388(NORAD编号68860)是美国SpaceX公司星链(Starlink)卫星互联网星座中的一颗低轨通信卫星。星链项目旨在通过部署数千颗低轨卫星,为全球提供高速低延迟的互联网接入服务,重点覆盖地面网络难以抵达的偏远区域、海洋与空域。作为星链批量部署的卫星之一,该卫星运行在近地轨道,参与构建全球卫星互联网通信组网,支撑个人、商业乃至应急、军事领域的通信需求,批量发射也助推星链星座规模持续扩展,不过大规模低轨卫星部署也引发了太空交通与天文观测相关争议。
美国
(US)
| 数据来源 | 国际轨道数据 |
| 星历时间: | 2026-05-24T12:00:02+0800 1天前 查看轨道信息 |
| 半长轴: | 6797.216km |
| 偏心率: | 0.000109 |
| 轨道倾角: | 97.285° |
| 近地点辐角 | 94.815° |
| 升交点赤经 | 158.829° |
| 平近点角 | 108.260° |
| 近地点: | 418.338km |
| 远地点: | 419.82km |
| 周期: | 92.951分钟 |
| 每日圈数: | 15.491954 |